Location: Sungai Laei
(2.6000°N, 113.7167°E)
Time: 10:15:43
(UTC+00:00)

Meteor 1-27 - Pass Details

Date: 22 May 2022
Orbit: 837 x 893 km, 81.3° (Epoch: 06 July)

Event Time Altitude Azimuth Distance (km) Brightness Sun altitude
Rises 21:33:39 0° 348° (NNW) 3,434 7.5 -10.3°
Reaches altitude 10° 21:36:06 10° 345° (NNW) 2,491 6.7 -9.8°
Maximum altitude 21:41:40 61° 266° (W) 957 4.2 -8.5°
Drops below altitude 10° 21:47:11 10° 186° (S) 2,464 6.4 -7.2°
Sets 21:49:37 0° 182° (S) 3,395 7.1 -6.6°
